Home   Weather   Tehran   Past weeks

Flag for Iran Past Weather in Tehran, Iran — Yesterday and Last 2 Weeks

Now
37 °F

Clear.


Feels Like: 37 °F
Forecast: 26 / 46 °F
Wind: No wind

Location: Tehran-Mehrabad

Current Time: Feb 19, 2017 at 10:21:13 pm

Latest Report: Feb 19, 2017 at 9:30 pm


Visibility: 5 mi

Pressure: 30.39 "Hg (26.26 "Hg at 1179m altitude)

Humidity: 28%

Dew Point: 7 °F

Location of TehranLocation

Past Weather in Tehran — Graph

°F

Tehran Temperature Yesterday

Maximum temperature yesterday: 39 °F (at 3:00 pm)
Minimum temperature yesterday: 27 °F (at 5:00 am)
Average temperature yesterday: 32 °F

High & Low Weather Summary for the Past Weeks

 TemperatureHumidityPressure
High55 °F (Feb 16, 1:30 pm)93% (Feb 10, 3:30 am)30.45 "Hg (Feb 10, 3:30 am)
Low25 °F (Feb 19, 5:00 am)24% (Feb 6, 2:00 pm)29.77 "Hg (Feb 17, 4:00 pm)
Average41 °F55%30.07 "Hg
* Reported Feb 4 8:30 pm — Feb 19 9:00 pm, Tehran, Weather by CustomWeather, © 2017

Note: Actual official high and low records may vary slightly from our data, if they occured in-between our weather recording intervals... More about our weather records

Advertising

Tehran Weather History for the Previous 24 Hours

Scroll right to see more
 ConditionsComfort  
Time TempWeatherWind HumidityBarometerVisibility
9:00 pm
Sun, Feb 19
36 °FClear.5 mph32%30.39 "Hg5 mi
8:30 pm37 °FClear.5 mph30%30.39 "Hg5 mi
8:00 pm37 °FClear.5 mph33%30.39 "Hg5 mi
7:30 pm37 °FClear.5 mph33%30.39 "Hg4 mi
7:00 pm39 °FClear.7 mph33%30.39 "Hg4 mi
6:30 pm39 °FClear.7 mph33%30.36 "Hg4 mi
6:00 pm39 °FClear.7 mph33%30.36 "Hg5 mi
5:30 pm41 °FClear.7 mph33%30.36 "Hg5 mi
5:00 pm41 °FClear.7 mph33%30.36 "Hg5 mi
4:30 pm43 °FClear.7 mph31%30.36 "Hg5 mi
4:00 pm43 °FClear.7 mph31%30.36 "Hg5 mi
3:30 pm43 °FClear.5 mph31%30.39 "Hg5 mi
3:00 pm43 °FClear.9 mph31%30.39 "Hg5 mi
2:30 pm41 °FClear.5 mph33%30.39 "Hg5 mi
2:00 pm41 °FClear.5 mph33%30.39 "Hg5 mi
1:30 pm41 °FClear.5 mph33%30.42 "Hg5 mi
1:00 pm39 °FClear.5 mph36%30.42 "Hg5 mi
12:30 pm39 °FClear.5 mph36%30.42 "Hg5 mi
12:00 pm37 °FClear.7 mph38%30.45 "Hg5 mi
11:30 am36 °FClear.5 mph41%30.45 "Hg5 mi
11:00 am36 °FClear.5 mph44%30.45 "Hg4 mi
10:30 am34 °FClear.7 mph48%30.45 "Hg4 mi
10:00 am34 °FClear.No wind51%30.45 "Hg4 mi
9:30 am32 °FClear.5 mph55%30.45 "Hg4 mi
9:00 am32 °FClear.5 mph55%30.45 "Hg4 mi
8:30 am30 °FClear.5 mph59%30.42 "Hg4 mi
8:00 am28 °FClear.5 mph64%30.42 "Hg5 mi
7:30 am27 °FSunny.5 mph69%30.42 "Hg10 mi
7:00 am27 °FClear.5 mph69%30.42 "Hg10 mi
6:30 am25 °FClear.5 mph74%30.42 "Hg10 mi
5:30 am27 °FClear.5 mph69%30.39 "Hg10 mi
5:00 am25 °FClear.5 mph80%30.39 "Hg10 mi
4:30 am27 °FClear.No wind69%30.39 "Hg10 mi
4:00 am27 °FClear.5 mph74%30.36 "Hg10 mi
3:30 am27 °FClear.5 mph74%30.36 "Hg10 mi
3:00 am27 °FClear.5 mph69%30.36 "Hg10 mi
2:30 am27 °FClear.7 mph69%30.36 "Hg10 mi
2:00 am28 °FClear.5 mph64%30.36 "Hg10 mi
1:30 am28 °FClear.5 mph64%30.36 "Hg10 mi
1:00 am28 °FClear.5 mph64%30.36 "Hg10 mi
12:30 am28 °FClear.7 mph64%30.36 "Hg10 mi
12:00 am28 °FPassing clouds.7 mph64%30.36 "HgN/A
11:30 pm
Sat, Feb 18
30 °FPassing clouds.7 mph59%30.36 "HgN/A
11:00 pm30 °FPassing clouds.7 mph64%30.33 "HgN/A
10:30 pm30 °FPassing clouds.7 mph59%30.33 "HgN/A
10:00 pm30 °FPassing clouds.7 mph59%30.33 "HgN/A
Weather by CustomWeather, © 2017

See weather overviewHow to use our weather pages